[[{"header":{"parameterUnit":"m.s-1","parameterCategory":1,"la1":30.2991,"la2":30.254,"lo1":-89.0895,"lo2":-89.0444,"dy":0.0017,"dx":0.0017,"nx":28,"ny":28,"refTime":"2023-11-01T21:00:00:Z","depth":0,"parameterNumber":2,"parameterNumberName":"U-component_of_WINDS"},"data":[0,0,0,0,0,0,0,0,0,0,0,0,0,0,0,0,0,0,0,0,0,0,0,0,0,0,0,0,0,0,0,0,0,0,0,0,0,0,0,0,0,0,0,0,0,0,0,0,0,0,0,0,0,0,0,0,0,0,-4.3022,-4.3023,0,-4.3111,-4.3112,-4.3113,-4.2979,-4.2974,-4.2969,-4.2965,-4.3057,-4.3063,-4.307,0,0,0,0,0,0,0,0,0,0,0,0,0,-4.2733,-4.2739,-4.3022,-4.3023,-4.3024,-4.3111,-4.3112,-4.3114,-4.2979,-4.2974,-4.2968,-4.2963,-4.3055,-4.3063,-4.3071,0,0,0,0,0,0,0,0,0,0,0,0,0,-4.2844,-4.2741,-4.3021,-4.2967,-4.2963,-4.3111,-4.3112,-4.3114,-4.2981,-4.2974,-4.2966,-4.296,-4.3052,-4.3062,-4.3072,-4.3277,0,0,-4.3103,-4.3108,0,0,0,0,0,0,0,0,-4.2838,-4.2855,-4.2974,-4.2971,-4.2967,-4.3026,-4.3044,-4.3169,-4.2982,-4.2974,-4.2965,-4.2956,-4.3052,-4.3062,-4.3095,-4.3281,-4.3285,-4.3104,-4.311,-4.3115,-4.3118,0,0,0,0,0,0,0,-4.2831,-4.285,-4.3057,-4.2976,-4.2972,-4.2938,-4.2946,-4.3067,-4.3052,-4.2974,-4.2965,-4.2977,-4.3049,-4.3085,-4.3096,-4.3286,-4.3104,-4.3113,-4.3119,-4.3123,-4.3644,-4.3651,0,0,0,0,0,0,-4.283,-4.2845,-4.3054,-4.306,-4.2884,-4.2949,-4.2958,-4.3015,-4.305,-4.3049,-4.2983,-4.2971,-4.3071,-4.3084,-4.3098,-4.334,-4.3115,-4.3124,-4.313,-4.3636,-4.3646,-4.3654,0,0,0,0,0,0,-4.2824,-4.285,-4.3051,-4.295,-4.2973,-4.2962,-4.3026,-4.302,-4.3056,-4.3057,-4.3053,-4.3023,-4.3066,-4.3084,-4.3233,-4.3341,-4.3129,-4.3138,-4.3627,-4.3639,-4.365,-4.3825,0,0,0,0,0,0,-4.2816,-4.2848,-4.2926,-4.2953,-4.2979,-4.3185,-4.3033,-4.3027,-4.3074,-4.3058,-4.3093,-4.3092,-4.3062,-4.3219,-4.3243,-4.3352,-4.3146,-4.3618,-4.3633,-4.3646,-4.381,-4.3841,-4.3868,0,0,0,0,0,-4.2806,-4.2972,-4.2931,-4.2957,-4.3076,-4.3191,-4.3206,-4.3168,-4.3083,-4.3161,-4.3162,-4.3091,-4.3325,-4.3235,-4.3262,-4.3375,-4.3611,-4.3628,-4.3645,-4.3797,-4.3835,-4.3868,0,0,0,0,0,0,-4.296,-4.2975,-4.2929,-4.3109,-4.315,-4.3168,-4.3266,-4.321,-4.3276,-4.3259,-4.3208,-4.3217,-4.3377,-4.339,-4.329,-4.3574,-4.3454,-4.3477,-4.356,-4.3596,-4.3625,-4.3619,-4.3155,0,0,0,0,0,-4.3014,-4.3107,-4.3115,-4.3272,-4.3295,-4.3277,-4.3326,-4.3293,-4.3333,-4.335,-4.3361,-4.3403,-4.3486,-4.3542,-4.3618,-4.3811,-4.3816,-4.3902,-4.3931,-4.3955,-4.3976,-4.4078,-4.4116,-4.3711,-4.371,-4.371,0,0,-4.3128,-4.3148,-4.3209,-4.3304,-4.3331,-4.3428,-4.3293,-4.3401,-4.3472,-4.3366,-4.3508,-4.3518,-4.3561,-4.3733,-4.3809,-4.3749,-4.4089,-4.3977,-4.3996,-4.4004,-4.41,-4.4139,-4.4173,-4.3722,-4.372,-4.3718,0,0,-4.3385,-4.3409,-4.3543,-4.3574,-4.3617,-4.3604,-4.3636,-4.3663,-4.3666,-4.3807,-4.3729,-4.3813,-4.3957,-4.3991,-4.4027,-4.4296,-4.4233,-4.4322,-4.4475,-4.4576,-4.4608,-4.4636,-4.4732,-4.4767,-4.4343,-4.4343,-4.4344,0,-4.3521,-4.3664,-4.3619,-4.3732,-4.3776,-4.3684,-4.3819,-4.3851,-4.3918,-4.395,-4.3881,-4.4059,-4.4082,-4.426,-4.4326,-4.4358,-4.4393,-4.4318,-4.4607,-4.4635,-4.466,-4.4751,-4.4787,-4.4354,-4.4353,-4.4351,-4.435,0,-4.3829,-4.3929,-4.4031,-4.4098,-4.4153,-4.4276,-4.425,-4.4311,-4.4273,-4.4267,-4.4411,-4.4435,-4.4515,-4.4554,-4.4518,-4.4728,-4.4689,-4.4615,-4.4493,-4.471,-4.4795,-4.4829,-4.4369,-4.4365,-4.4362,-4.4359,0,0,-4.4186,-4.4225,-4.4264,-4.4292,-4.4333,-4.4409,-4.4528,-4.4606,-4.4659,-4.4708,-4.4806,-4.493,-4.4861,-4.4902,-4.4869,-4.4957,-4.5169,-4.4872,-4.4872,-4.4926,-4.5401,-4.5457,-4.5498,-4.5127,-4.5133,-4.5138,-4.5397,0,-4.4442,-4.4648,-4.461,-4.4811,-4.4902,-4.4816,-4.4919,-4.4956,-4.4953,-4.503,-4.5026,-4.5115,-4.5018,-4.5042,-4.5125,-4.5126,-4.5263,-4.5106,-4.5218,-4.5223,-4.5211,-4.5542,-4.5602,-4.5844,-4.543,-4.5435,-4.5439,0,-4.4769,-4.4829,-4.5039,-4.5064,-4.5101,-4.5195,-4.5263,-4.5337,-4.5376,-4.5368,-4.5414,-4.5364,-4.5482,-4.5358,-4.552,-4.5414,-4.5458,-4.5465,-4.5473,-4.5483,-4.5345,-4.5561,-4.5921,-4.5958,-4.5491,-4.5487,-4.5483,0,-4.5008,-4.5142,-4.5284,-4.5312,-4.5345,-4.5413,-4.543,-4.5462,-4.5511,-4.557,-4.5601,-4.5673,-4.5713,-4.577,-4.574,-4.5653,-4.5908,-4.5781,-4.5904,-4.5906,-4.5963,-4.596,-4.6336,-4.5991,-4.599,-4.5989,-4.5988,0,-4.5298,-4.543,-4.5392,-4.548,-4.5625,-4.558,-4.5724,-4.5731,-4.576,-4.5848,-4.5777,-4.5861,-4.5817,-4.5897,-4.5875,-4.6012,-4.6031,-4.6027,-4.602,-4.6034,-4.6035,-4.6062,-4.6045,-4.5999,-4.5997,-4.5995,-4.5993,0,-4.5591,-4.5571,-4.5721,-4.574,-4.5748,-4.5854,-4.587,-4.5951,-4.5943,-4.6054,-4.6078,-4.6065,-4.6155,-4.6131,-4.623,-4.6215,-4.6389,-4.636,-4.6376,-4.6369,-4.6493,-4.6482,-4.6901,-4.6953,-4.6574,-4.6578,-4.6581,0,-4.5778,-4.5877,-4.5907,-4.596,-4.5982,-4.6069,-4.6118,-4.6078,-4.6132,-4.6183,-4.6259,-4.6343,-4.6408,-4.6557,-4.6556,-4.6631,-4.6604,-4.6745,-4.6615,-4.6626,-4.6606,-4.6601,-4.6611,-4.6772,-4.6776,-4.678,-4.6782,0,-4.6112,-4.6097,-4.617,-4.6241,-4.6301,-4.6355,-4.6401,-4.6449,-4.6412,-4.6476,-4.6568,-4.6618,-4.6719,-4.6803,-4.6872,-4.6889,-4.6831,-4.6823,-4.6856,-4.6872,-4.6877,-4.6876,-4.6447,-4.6814,-4.6811,-4.6809,-4.6807,-4.6806,-4.6357,-4.6441,-4.6475,-4.6559,-4.659,-4.6635,-4.6713,-4.6713,-4.6789,-4.6867,-4.6839,-4.6944,-4.6979,-4.7065,-4.7091,-4.7172,-4.7119,-4.7166,-4.7178,-4.719,-4.7206,-4.6864,-4.7185,-4.7184,-4.7183,-4.7182,-4.7181,0,-4.6687,-4.6704,-4.6782,-4.685,-4.6916,-4.6854,-4.6902,-4.6962,-4.7055,-4.7093,-4.7159,-4.7264,-4.7345,-4.7351,-4.7427,-4.7491,-4.7466,-4.7513,-4.7508,-4.7513,-4.7249,-4.7214,-4.7531,-4.7531,-4.7531,-4.7531,-4.7531,-4.7531,-4.6867,-4.7005,-4.6994,-4.7147,-4.7163,-4.7265,-4.7298,-4.734,-4.7369,-4.749,-4.7557,-4.756,-4.7585,-4.7662,-4.7734,-4.7733,-4.7765,-4.7822,-4.7812,-4.7566,-4.7531,-4.7498,-4.7464,-4.7829,-4.783,-4.8068,-4.807,-4.8072]},{"header":{"parameterUnit":"m.s-1","parameterCategory":1,"la1":30.2991,"la2":30.254,"lo1":-89.0895,"lo2":-89.0444,"dy":0.0017,"dx":0.0017,"nx":28,"ny":28,"refTime":"2023-11-01T21:00:00:Z","depth":0,"parameterNumber":3,"parameterNumberName":"V-component_of_WINDS"},"data":[0,0,0,0,0,0,0,0,0,0,0,0,0,0,0,0,0,0,0,0,0,0,0,0,0,0,0,0,0,0,0,0,0,0,0,0,0,0,0,0,0,0,0,0,0,0,0,0,0,0,0,0,0,0,0,0,0,0,-3.6238,-3.6238,0,-3.6237,-3.6237,-3.6237,-3.6212,-3.6212,-3.6211,-3.6211,-3.6206,-3.6206,-3.6207,0,0,0,0,0,0,0,0,0,0,0,0,0,-3.6212,-3.6213,-3.6238,-3.6238,-3.6238,-3.6237,-3.6237,-3.6237,-3.6213,-3.6212,-3.6211,-3.621,-3.6206,-3.6206,-3.6207,0,0,0,0,0,0,0,0,0,0,0,0,0,-3.6219,-3.6213,-3.6238,-3.6226,-3.6225,-3.6237,-3.6237,-3.6237,-3.6213,-3.6212,-3.6211,-3.621,-3.6206,-3.6206,-3.6207,-3.623,0,0,-3.6209,-3.6209,0,0,0,0,0,0,0,0,-3.6218,-3.6219,-3.6228,-3.6227,-3.6225,-3.6224,-3.6226,-3.6235,-3.6213,-3.6217,-3.6211,-3.6209,-3.6213,-3.6213,-3.6214,-3.623,-3.623,-3.6209,-3.621,-3.621,-3.621,0,0,0,0,0,0,0,-3.6218,-3.6219,-3.6238,-3.6228,-3.6226,-3.6218,-3.6218,-3.6228,-3.622,-3.6217,-3.6215,-3.6215,-3.6212,-3.6214,-3.6214,-3.623,-3.6209,-3.621,-3.621,-3.6211,-3.6259,-3.626,0,0,0,0,0,0,-3.622,-3.6219,-3.6238,-3.6238,-3.622,-3.6219,-3.6219,-3.6225,-3.622,-3.6218,-3.6216,-3.6214,-3.6213,-3.6213,-3.6214,-3.6237,-3.621,-3.6211,-3.6211,-3.6258,-3.6259,-3.626,0,0,0,0,0,0,-3.6219,-3.6222,-3.6238,-3.6228,-3.6229,-3.6221,-3.6228,-3.6226,-3.6228,-3.622,-3.6217,-3.622,-3.6212,-3.6213,-3.6225,-3.6237,-3.6211,-3.6212,-3.6257,-3.6258,-3.626,-3.6287,0,0,0,0,0,0,-3.6219,-3.6222,-3.6232,-3.6228,-3.623,-3.6251,-3.6229,-3.6226,-3.623,-3.6227,-3.6223,-3.6221,-3.6212,-3.6225,-3.6226,-3.6237,-3.6212,-3.6256,-3.6258,-3.6259,-3.6285,-3.6289,-3.6292,0,0,0,0,0,-3.6218,-3.624,-3.6233,-3.6235,-3.6243,-3.6252,-3.6253,-3.6243,-3.6231,-3.624,-3.6233,-3.6221,-3.6236,-3.6226,-3.6228,-3.6239,-3.6255,-3.6257,-3.6259,-3.6283,-3.6288,-3.6292,0,0,0,0,0,0,-3.6246,-3.624,-3.6232,-3.6254,-3.6254,-3.6248,-3.626,-3.6249,-3.6252,-3.6249,-3.6235,-3.6234,-3.6248,-3.6245,-3.6234,-3.6259,-3.6243,-3.6245,-3.6261,-3.6265,-3.6269,-3.6269,-3.6213,0,0,0,0,0,-3.6254,-3.6264,-3.6257,-3.6277,-3.6278,-3.6269,-3.6272,-3.6264,-3.6263,-3.6263,-3.6258,-3.6256,-3.6259,-3.6262,-3.6266,-3.6284,-3.6281,-3.6293,-3.6296,-3.6299,-3.6301,-3.6307,-3.6311,-3.6267,-3.6267,-3.6266,0,0,-3.6272,-3.627,-3.6277,-3.6283,-3.6282,-3.6289,-3.6269,-3.6279,-3.6283,-3.6264,-3.6275,-3.6271,-3.6267,-3.6282,-3.6288,-3.628,-3.6313,-3.6302,-3.6305,-3.6305,-3.6309,-3.6314,-3.6317,-3.6268,-3.6268,-3.6267,0,0,-3.6308,-3.6309,-3.6324,-3.6323,-3.6322,-3.6315,-3.6318,-3.6314,-3.631,-3.6321,-3.6305,-3.631,-3.6318,-3.6315,-3.6314,-3.6345,-3.6332,-3.6346,-3.6365,-3.6371,-3.6375,-3.6377,-3.6386,-3.6389,-3.6348,-3.6348,-3.6348,0,-3.6331,-3.6343,-3.6333,-3.6343,-3.6344,-3.6326,-3.6339,-3.6338,-3.6338,-3.6338,-3.6329,-3.6336,-3.6333,-3.6344,-3.6351,-3.6353,-3.6354,-3.6346,-3.6375,-3.6378,-3.6381,-3.6388,-3.6392,-3.635,-3.635,-3.6349,-3.6349,0,-3.6369,-3.6377,-3.6389,-3.6389,-3.6391,-3.6403,-3.6391,-3.6395,-3.6386,-3.6379,-3.6388,-3.6383,-3.6383,-3.6385,-3.6377,-3.6395,-3.6389,-3.6378,-3.6361,-3.6387,-3.6393,-3.6396,-3.6352,-3.6351,-3.6351,-3.6351,0,0,-3.6424,-3.6415,-3.642,-3.6417,-3.6413,-3.6418,-3.6427,-3.6428,-3.6429,-3.6429,-3.6434,-3.6439,-3.6427,-3.6427,-3.6417,-3.6422,-3.6443,-3.6409,-3.6409,-3.6414,-3.6458,-3.6466,-3.6469,-3.6434,-3.6435,-3.6435,-3.6458,0,-3.6457,-3.6473,-3.6462,-3.6479,-3.6484,-3.6466,-3.6473,-3.647,-3.6463,-3.6465,-3.6456,-3.6459,-3.6445,-3.6444,-3.6448,-3.6439,-3.6451,-3.6438,-3.6436,-3.6436,-3.6437,-3.6473,-3.6482,-3.6504,-3.646,-3.6461,-3.6461,0,-3.6498,-3.6498,-3.6516,-3.6506,-3.6508,-3.6515,-3.6513,-3.6516,-3.651,-3.6504,-3.6502,-3.6489,-3.6494,-3.6479,-3.6483,-3.6475,-3.6473,-3.6468,-3.6468,-3.6467,-3.645,-3.6471,-3.651,-3.6513,-3.6466,-3.6465,-3.6465,0,-3.6533,-3.6537,-3.6548,-3.6547,-3.6537,-3.6541,-3.6537,-3.6531,-3.653,-3.6528,-3.6527,-3.6524,-3.6523,-3.652,-3.6506,-3.6496,-3.6511,-3.6495,-3.6504,-3.6505,-3.6508,-3.6508,-3.6546,-3.651,-3.651,-3.651,-3.651,0,-3.6569,-3.658,-3.6562,-3.6569,-3.6579,-3.6564,-3.6574,-3.6568,-3.6561,-3.6564,-3.6548,-3.655,-3.6533,-3.6532,-3.6521,-3.6525,-3.6525,-3.6518,-3.6515,-3.6519,-3.6519,-3.6517,-3.6514,-3.6511,-3.651,-3.651,-3.651,0,-3.661,-3.6599,-3.6608,-3.6598,-3.6595,-3.6603,-3.6592,-3.6596,-3.6587,-3.659,-3.659,-3.6575,-3.6574,-3.656,-3.6555,-3.6547,-3.6554,-3.6549,-3.6556,-3.6554,-3.6563,-3.6562,-3.66,-3.6603,-3.6567,-3.6567,-3.6567,0,-3.6633,-3.6641,-3.663,-3.6631,-3.6628,-3.663,-3.6629,-3.6614,-3.6613,-3.6605,-3.6609,-3.6606,-3.6603,-3.66,-3.6588,-3.6583,-3.6576,-3.659,-3.6575,-3.6578,-3.6573,-3.6573,-3.6572,-3.6593,-3.6593,-3.6593,-3.6594,0,-3.6675,-3.6668,-3.6669,-3.6666,-3.6665,-3.6662,-3.6658,-3.6659,-3.6642,-3.6642,-3.664,-3.6637,-3.6631,-3.6628,-3.662,-3.6613,-3.66,-3.6598,-3.66,-3.6603,-3.6606,-3.6602,-3.6563,-3.6597,-3.6597,-3.6597,-3.6597,-3.6597,-3.6706,-3.671,-3.6703,-3.6702,-3.6697,-3.6693,-3.6695,-3.6686,-3.6684,-3.6679,-3.6669,-3.6668,-3.6658,-3.6647,-3.6641,-3.6638,-3.6631,-3.6633,-3.6634,-3.6634,-3.6635,-3.6608,-3.6637,-3.6637,-3.6637,-3.6637,-3.6636,0,-3.6744,-3.6738,-3.6738,-3.6732,-3.673,-3.6719,-3.6712,-3.6711,-3.6711,-3.6703,-3.67,-3.6696,-3.6691,-3.6678,-3.6671,-3.6671,-3.6664,-3.667,-3.6669,-3.6667,-3.6644,-3.6642,-3.6675,-3.6675,-3.6675,-3.6675,-3.6675,-3.6675,-3.6764,-3.677,-3.6762,-3.6764,-3.6757,-3.6756,-3.6753,-3.6748,-3.6741,-3.6738,-3.6734,-3.6725,-3.6714,-3.6706,-3.67,-3.6696,-3.6694,-3.6701,-3.6694,-3.6673,-3.6669,-3.6665,-3.6664,-3.6701,-3.6701,-3.6717,-3.6718,-3.6718]}]]